RH
93 91 87 90 99 101 101 101 103 104 103 103 100 97 98 93 86 77 66 50 35 29 29 34 36 40 43 45 49 49 54 52 49 59 73 78 72 77 94 101 102 102 98 92 94 96 97 100 99 98 94 87 75 69 84 86 74 73 59 40 37 69 101 83 66 80 86 84 88 101 102 99 97 76 67 62 61 85 89 91 107 96 66 36 18
100 100 97 100 104 102 101 103 102 98 96 95 92 90 83 75 66 53 42 32 28 30 32 36 38 42 47 48 51 53 55 53 54 68 77 75 68 75 94 103 104 103 101 99 100 96 94 99 102 103 94 83 77 74 88 91 78 72 58 41 37 69 96 68 57 75 80 76 70 82 91 89 86 69 68 69 65 82 92 93 100 103 97 73 44
102 100 99 99 96 94 97 97 89 86 87 85 80 75 67 59 48 34 29 27 29 33 35 40 43 49 56 53 53 53 55 55 60 73 78 73 69 76 93 105 106 102 102 105 103 93 86 92 100 103 92 82 81 79 88 93 79 69 59 43 36 70 93 62 49 55 58 62 52 57 62 61 66 60 67 80 76 80 88 96 101 98 102 100 82
83 77 73 71 72 74 75 73 70 72 77 75 68 61 51 45 38 30 31 32 35 40 41 42 45 52 57 54 53 52 52 55 64 77 78 77 78 85 98 104 103 101 105 107 100 90 89 96 101 99 93 89 88 82 84 85 77 69 59 44 36 67 91 63 49 51 47 51 45 46 51 50 52 46 57 81 89 90 86 92 104 102 100 102 102
49 47 46 48 51 51 50 51 54 60 64 63 60 55 55 59 53 46 47 45 42 45 44 43 46 50 53 53 52 46 47 61 76 80 79 83 89 94 101 101 101 101 103 103 98 94 97 102 101 96 96 99 93 81 78 75 73 70 57 46 36 58 88 67 52 58 51 52 48 43 48 51 51 45 50 67 84 96 94 93 101 106 104 101 102
27 29 31 33 35 35 37 43 48 55 57 57 58 60 72 78 69 64 67 58 46 46 46 47 50 51 51 51 45 41 53 76 85 80 81 90 95 100 103 101 101 100 100 101 98 100 102 102 100 96 98 103 92 75 72 71 73 69 54 48 38 48 84 76 56 60 56 54 53 47 47 51 53 50 50 56 67 81 91 94 97 102 105 104 104
25 28 31 33 35 39 44 52 58 59 54 50 52 56 63 65 63 68 69 57 49 49 49 50 51 47 45 42 40 51 72 85 82 78 85 93 100 104 103 100 100 99 100 102 100 103 104 100 101 99 101 105 87 65 65 71 77 70 51 49 42 43 76 82 62 61 61 58 57 52 50 52 56 54 51 53 57 63 72 79 84 92 96 100 106
39 41 44 45 46 49 54 60 63 59 50 46 50 54 54 54 57 58 54 49 47 44 42 46 46 40 40 41 50 73 88 83 71 70 76 85 97 99 98 100 100 101 104 102 101 105 103 99 102 101 105 105 80 57 58 68 78 70 50 49 46 41 68 86 73 65 63 60 59 56 52 53 57 58 54 52 54 55 59 63 66 73 80 84 91
43 45 48 50 47 47 48 50 51 46 40 38 42 48 52 52 48 41 37 38 39 36 38 43 42 44 53 61 71 82 81 69 62 64 67 75 85 88 91 94 92 98 103 103 104 105 101 99 102 102 107 102 75 57 54 61 73 66 49 49 48 41 62 90 85 71 65 62 60 56 52 53 58 62 58 52 51 51 52 55 56 59 64 69 73
36 42 47 46 41 39 38 36 35 32 30 32 34 42 51 52 45 37 31 33 37 40 44 44 47 66 80 77 75 70 65 62 59 61 64 69 79 84 79 75 82 91 97 104 105 101 99 100 102 101 106 98 73 59 55 55 62 57 48 48 47 43 60 90 91 75 67 63 61 58 52 51 57 64 64 58 52 48 48 49 51 51 53 57 61
30 36 38 35 32 32 31 32 31 30 32 33 36 41 47 47 44 38 31 35 44 46 46 44 54 81 83 67 64 64 63 63 56 52 55 60 67 68 60 66 85 88 90 105 104 99 102 101 100 100 102 93 71 59 53 50 50 48 45 46 45 43 58 86 91 78 69 65 62 59 54 49 52 60 66 66 59 51 47 44 45 46 47 48 51
25 27 29 31 33 34 34 35 33 34 38 37 37 41 42 41 39 36 32 36 44 48 48 46 53 68 66 58 64 68 65 61 52 49 53 58 60 57 58 75 93 93 96 106 102 102 106 101 102 103 96 83 64 53 47 44 42 41 42 42 41 40 51 76 87 80 71 65 62 59 55 50 49 54 62 67 66 60 53 47 43 41 41 42 43
23 23 27 31 34 38 41 40 35 36 39 35 34 36 38 39 38 37 36 37 46 54 53 50 52 56 62 69 71 66 61 57 53 54 55 57 58 59 67 80 94 102 103 101 101 107 106 98 99 96 82 68 55 46 41 39 38 37 38 38 38 37 41 60 76 79 73 64 61 59 55 52 48 49 55 61 63 62 60 55 50 45 41 39 38
22 22 24 28 33 40 43 39 33 33 33 29 28 30 33 37 39 39 40 43 51 57 55 56 62 70 79 84 79 67 58 54 52 54 53 51 56 65 75 84 97 108 102 99 103 100 88 80 77 71 63 57 49 42 38 37 35 34 34 33 35 34 33 42 58 71 72 65 60 59 58 55 51 49 52 55 56 57 57 56 55 52 48 44 41
22 22 24 28 33 38 37 33 30 29 29 28 27 28 30 34 38 40 42 45 51 56 60 65 75 88 93 90 83 70 57 50 49 52 53 53 59 68 77 87 100 105 99 101 104 90 76 70 63 55 51 49 45 40 35 33 33 32 31 31 32 32 30 31 39 52 62 62 60 60 61 59 55 52 52 53 51 50 51 51 52 52 50 48 45
25 25 26 30 33 32 29 28 29 29 29 29 28 28 30 33 37 41 41 41 46 54 61 66 73 81 81 76 70 60 52 52 55 61 64 62 64 73 83 94 102 103 103 101 90 76 68 63 57 49 44 42 38 35 33 31 31 30 29 30 29 30 29 28 29 35 48 57 59 60 63 63 59 55 53 55 54 50 48 46 48 49 49 48 46
25 25 27 32 35 32 28 27 29 30 30 29 28 28 29 30 33 36 37 36 38 45 51 55 55 53 50 48 49 50 53 60 66 72 74 72 76 88 95 93 87 84 93 90 67 54 52 46 45 43 38 36 33 31 30 29 30 30 30 29 27 27 26 26 26 28 38 51 57 58 61 63 62 58 55 55 55 53 50 47 47 48 48 47 45
22 24 28 34 38 33 29 30 31 32 31 30 28 27 28 28 28 29 30 30 30 33 37 42 42 38 37 40 45 51 57 63 67 72 79 80 85 97 102 89 66 49 57 62 45 35 37 33 36 37 33 32 31 30 29 29 29 30 29 27 25 24 22 22 24 24 31 44 53 55 57 60 62 61 59 56 54 51 49 47 45 45 45 44 43
19 23 27 32 35 33 31 33 34 33 33 33 32 31 30 29 28 27 25 25 26 27 31 38 43 43 44 46 50 55 60 63 66 72 78 80 81 86 90 84 64 39 32 36 31 28 28 27 30 30 28 29 29 28 27 28 28 28 27 24 21 20 19 20 21 21 25 35 47 52 52 54 55 56 57 56 54 51 47 45 44 42 42 41 40
18 21 25 27 30 32 33 35 35 34 34 35 36 34 33 32 32 30 26 24 25 28 32 37 43 50 54 57 57 56 56 61 67 70 68 70 70 61 52 51 47 33 25 24 23 23 23 23 24 24 24 25 25 26 26 26 26 26 25 22 20 19 19 19 20 21 22 28 39 47 49 49 49 50 51 51 52 50 48 45 43 41 40 40 41
18 20 22 24 27 30 32 34 34 33 32 34 36 35 33 32 33 33 30 28 27 30 34 37 41 49 55 58 57 51 48 54 63 63 58 56 54 42 29 27 26 24 22 22 21 21 21 21 20 21 21 22 22 23 24 24 24 24 23 20 19 18 18 19 19 19 20 24 31 41 46 47 46 46 46 46 46 46 46 45 43 41 39 40 42
17 19 21 22 25 28 30 31 31 30 30 32 35 35 32 29 30 33 35 35 33 33 39 44 48 51 55 57 57 53 49 52 61 67 64 51 38 30 25 24 24 24 24 24 24 23 21 20 19 19 19 19 21 21 22 23 23 22 22 20 18 16 17 18 19 19 19 21 25 32 40 44 46 46 45 44 43 42 42 42 42 42 42 42 42
15 17 20 22 23 27 31 29 28 27 27 29 32 34 34 31 28 29 35 39 37 37 44 53 58 57 57 58 57 55 49 49 60 71 70 56 38 30 28 28 29 31 31 31 31 29 27 25 22 20 19 18 19 18 19 20 21 21 21 20 19 17 15 15 16 18 18 19 21 24 28 33 37 39 40 41 40 40 40 39 39 40 41 42 40
14 15 17 21 23 28 32 29 26 25 24 24 26 27 29 29 27 26 31 38 40 42 47 54 60 58 54 50 47 45 45 49 57 57 51 45 39 36 34 32 33 35 37 37 37 36 35 33 29 27 24 22 20 19 19 18 18 19 19 19 19 18 17 16 15 15 15 17 18 19 21 22 24 26 28 29 31 33 35 36 37 36 37 38 38
14 15 16 18 22 28 33 32 25 22 22 22 22 21 21 22 23 24 28 33 38 42 46 49 51 49 46 42 41 42 44 48 48 40 36 38 42 42 39 38 38 40 43 44 44 45 44 42 41 39 34 29 27 25 23 21 20 18 17 17 17 17 18 17 17 16 15 15 15 15 16 17 18 19 20 21 22 24 27 30 33 34 34 33 34
21 17 16 17 21 27 31 32 26 20 20 21 21 20 18 18 20 22 26 29 32 34 38 39 39 39 39 39 42 46 48 45 38 34 39 44 47 50 49 47 45 45 48 51 52 52 52 51 51 51 47 42 38 34 30 28 26 25 23 22 20 19 17 17 17 17 17 17 16 16 15 15 15 15 16 17 17 18 20 22 25 28 31 31 32
33 25 22 20 20 22 25 29 27 21 18 18 20 20 18 17 18 21 24 27 28 27 27 30 32 33 35 37 40 42 43 41 36 37 43 47 49 52 55 56 54 51 50 53 55 56 57 58 58 59 59 56 52 47 43 38 34 33 31 30 28 25 23 21 19 18 18 17 17 17 17 16 16 15 15 15 15 16 16 17 18 20 23 26 28
45 39 33 27 23 19 18 23 26 23 20 18 19 20 18 17 16 19 24 27 29 27 25 27 30 32 35 38 39 39 39 39 39 42 45 48 50 50 52 57 59 57 54 54 58 60 60 61 63 64 65 64 61 60 57 51 46 42 39 38 37 35 33 30 27 25 23 21 20 19 18 18 17 17 16 16 15 15 15 15 16 16 16 18 19
55 51 46 40 33 25 18 18 22 25 25 21 19 19 19 18 16 17 21 26 29 27 25 27 28 32 37 41 43 43 43 43 43 45 46 46 48 48 50 55 59 60 59 60 62 63 63 63 64 66 67 66 66 66 65 63 59 55 51 48 47 46 44 41 39 36 33 31 29 26 24 22 20 19 18 18 17 17 16 16 15 15 15 15 16
60 60 58 53 47 40 31 23 20 22 23 23 22 20 18 18 17 16 18 23 26 24 23 26 29 34 41 44 49 53 52 48 44 45 46 46 47 48 49 51 55 59 61 63 64 65 66 65 64 64 65 65 65 65 65 66 66 65 63 61 59 57 55 53 50 47 45 43 41 39 37 34 31 28 25 22 20 19 19 18 18 17 17 16 16
58 61 65 62 56 52 47 38 29 24 21 18 20 20 20 20 18 17 17 18 21 22 22 26 30 36 42 45 51 57 57 50 45 45 47 46 48 51 53 52 53 57 62 66 67 67 68 67 65 63 62 61 61 62 62 63 64 65 66 66 66 65 64 63 61 58 55 53 51 50 48 47 45 43 40 36 32 28 25 22 21 20 19 19 18
53 58 63 63 60 58 55 52 45 37 29 21 18 18 19 21 19 18 18 18 19 20 22 26 29 33 35 38 46 54 54 48 46 51 51 47 47 52 55 54 54 55 61 67 71 72 71 70 68 66 64 62 60 60 60 60 60 61 61 62 62 62 63 63 64 63 63 61 60 58 57 56 54 52 51 48 45 43 39 35 32 28 25 23 21
49 53 57 58 60 59 57 57 57 54 48 37 27 21 18 18 19 17 17 18 19 20 22 25 30 34 36 40 47 52 50 48 52 58 57 49 48 52 54 54 56 57 60 65 70 74 75 75 74 74 73 69 64 61 59 58 58 57 57 58 58 57 57 58 58 58 59 60 60 60 61 61 61 60 58 56 54 52 49 47 46 43 39 36 33
46 48 52 54 55 56 56 57 59 61 62 57 47 38 28 20 17 16 16 17 17 18 20 20 23 28 34 40 44 45 45 48 54 58 56 50 48 51 54 54 56 58 60 61 63 68 72 73 73 74 76 77 74 70 68 66 64 60 57 55 55 55 55 54 54 54 54 54 53 54 55 56 58 59 60 60 59 59 57 54 52 50 48 47 46
46 45 46 49 49 49 52 53 56 59 62 64 62 56 49 37 26 19 15 15 15 16 17 18 19 19 21 26 32 37 41 44 47 50 51 51 51 51 52 53 54 55 57 58 58 59 63 66 66 63 63 66 70 71 71 71 70 67 61 56 53 53 52 52 53 52 52 51 51 50 50 51 51 52 52 54 55 56 58 59 58 57 54 52 51
51 50 46 47 46 43 44 46 50 55 57 60 61 61 62 59 50 39 27 19 17 16 15 16 17 18 18 18 21 26 32 36 40 43 46 48 50 51 51 51 52 52 53 53 54 55 56 58 58 55 51 52 54 57 57 57 57 57 55 53 51 49 49 49 49 49 49 49 49 49 49 49 48 48 47 47 48 49 50 51 53 56 56 55 54
56 62 56 52 51 47 43 41 42 48 53 57 58 57 60 65 65 61 51 38 28 22 19 17 16 16 17 18 19 19 22 25 30 34 39 43 45 48 50 50 48 50 51 51 52 52 52 52 51 50 48 48 47 47 47 46 45 44 44 45 45 44 44 44 43 43 43 42 43 45 47 48 47 46 45 43 43 43 44 45 46 46 48 50 51
65 75 74 65 63 59 53 48 43 42 46 53 57 55 54 59 63 65 67 64 53 42 33 26 22 20 17 16 18 19 18 19 22 25 28 34 38 42 46 48 47 48 48 49 49 49 49 49 48 47 46 45 45 43 42 42 40 39 38 37 37 37 38 38 38 37 36 36 35 36 39 43 46 45 43 43 42 40 40 41 42 42 43 42 43
74 81 82 75 74 75 72 66 58 50 44 45 54 57 53 53 56 58 64 70 72 69 60 49 40 33 28 22 19 22 23 21 22 22 21 24 28 32 38 42 43 45 46 46 46 46 46 46 45 45 45 44 44 42 40 39 38 36 35 33 32 32 33 33 33 31 31 31 31 33 34 37 42 45 42 40 40 41 40 38 37 37 38 38 39
71 77 80 76 76 77 77 77 76 70 60 49 48 52 52 52 53 53 56 60 65 70 73 73 68 60 55 46 35 32 32 29 28 26 21 20 21 22 27 31 34 37 39 41 43 43 44 44 43 43 44 43 41 40 38 38 36 35 34 33 32 32 32 33 33 32 31 29 28 31 34 35 36 41 44 42 38 38 39 39 38 35 32 32 34
56 64 70 69 64 60 59 66 77 85 83 70 58 51 49 52 56 56 56 57 57 56 58 65 74 80 80 69 62 62 56 43 35 29 21 18 19 19 20 22 24 27 30 33 36 38 39 40 41 41 41 41 40 39 37 36 35 35 34 33 32 31 31 32 33 34 34 31 28 27 31 35 34 34 39 43 41 37 37 39 40 39 35 31 29
42 47 53 54 54 52 50 57 73 88 94 90 79 66 56 54 56 57 57 56 56 55 54 54 60 75 84 81 81 88 85 69 57 47 39 32 25 19 19 20 20 22 23 23 25 28 30 32 34 34 34 35 34 34 34 33 33 33 32 32 31 30 29 29 29 30 30 29 28 25 26 30 32 31 33 37 41 41 40 42 44 44 41 36 31
38 41 44 46 51 55 54 60 77 93 99 99 95 86 75 66 60 58 57 52 47 48 56 61 61 64 73 79 86 96 101 97 89 81 77 72 56 34 20 18 19 18 20 22 22 22 24 24 25 26 27 28 28 28 28 28 28 28 28 28 27 27 27 26 25 25 25 24 25 25 24 25 26 28 28 30 35 37 38 42 47 51 50 44 37
36 39 43 47 52 57 56 61 77 95 103 104 104 100 92 82 75 70 65 59 51 48 51 57 62 66 68 70 77 90 103 107 104 101 101 101 89 60 33 27 31 25 17 17 18 19 21 22 22 23 23 22 22 22 22 23 24 25 25 25 25 25 25 25 24 23 24 24 23 23 24 24 24 25 26 27 29 32 32 34 40 48 55 57 51
37 37 41 47 51 56 57 58 69 87 101 103 103 105 101 93 88 83 75 68 62 58 56 51 52 63 70 67 65 73 87 95 96 98 100 103 101 87 72 72 76 62 41 32 31 29 26 23 21 22 23 25 27 26 24 23 22 22 22 22 23 24 24 24 23 21 20 21 22 22 22 23 23 24 25 25 26 28 30 32 35 42 50 57 62
40 38 39 42 46 51 55 55 57 71 93 102 100 102 104 100 99 93 86 83 75 67 66 59 49 48 54 61 62 61 66 76 80 83 85 87 91 95 99 103 103 95 85 80 77 69 57 46 37 28 23 25 30 32 29 26 27 30 30 27 25 25 24 23 21 19 18 18 19 19 19 20 22 24 25 26 29 31 34 38 44 50 54 58 62
43 43 42 41 42 45 49 53 50 53 78 101 102 99 100 102 103 95 88 92 91 82 76 67 56 50 45 50 58 58 55 62 73 82 82 78 77 84 94 102 102 101 103 104 103 98 87 75 64 51 38 31 29 28 25 27 34 39 37 33 30 28 25 21 18 20 22 23 22 21 20 19 21 25 30 34 40 48 54 58 62 67 70 71 70
48 47 49 45 45 48 49 52 50 43 57 84 99 104 106 106 106 98 92 97 100 99 94 80 68 64 57 51 55 57 53 53 67 86 93 90 85 80 82 88 90 91 97 101 103 103 95 84 77 70 61 55 47 37 29 28 32 34 32 35 40 42 41 38 36 35 34 30 27 26 25 24 24 27 36 49 62 73 78 78 77 78 80 83 84
54 51 55 51 49 52 51 53 55 49 46 56 74 89 97 99 99 96 95 99 97 97 102 102 93 84 74 65 61 61 59 55 62 79 92 97 99 94 88 83 77 75 80 83 83 84 81 75 73 72 70 69 63 49 36 32 32 33 35 38 40 41 44 47 47 48 45 36 30 29 28 27 26 27 35 49 64 73 75 73 72 71 70 73 80
61 54 58 61 58 57 60 66 75 76 66 59 63 71 78 82 86 89 90 91 86 77 78 91 98 95 89 84 76 71 70 66 64 70 79 86 93 96 95 90 80 71 68 63 57 58 58 57 58 61 63 65 61 52 45 42 41 41 42 39 32 30 33 36 36 40 41 37 33 33 32 30 27 26 28 35 41 43 43 45 46 45 41 40 46
70 63 67 76 75 71 71 77 89 93 86 79 79 81 81 78 74 74 74 72 70 61 52 56 69 81 89 92 88 82 77 71 64 61 64 69 75 78 80 78 73 67 63 55 46 44 45 43 42 44 48 50 49 46 46 46 48 49 48 41 33 28 28 27 25 29 34 35 33 32 32 31 29 26 25 28 30 30 29 31 32 33 33 33 33
Wind_Speed
6 5 5 5 5 5 5 5 4 5 7 10 10 9 9 11 13 14 14 12 9 6 5 6 7 7 7 8 8 7 6 6 7 9 9 11 13 15 15 16 17 18 18 19 21 23 23 22 21 19 19 19 21 23 21 18 17 18 17 15 11 9 11 11 11 10 11 13 13 12 11 13 17 24 31 36 43 50 52 55 62 65 61 51 42
8 7 6 6 5 4 3 4 5 7 9 10 9 9 10 12 11 11 8 6 5 6 6 6 6 6 7 7 7 6 6 6 7 7 8 10 13 15 16 16 18 18 18 20 23 24 24 25 22 20 19 19 21 22 20 19 18 17 17 15 11 9 12 14 13 12 14 15 14 13 14 14 16 24 30 35 42 48 53 56 60 64 66 62 54
7 6 6 6 5 4 4 6 7 7 7 8 8 9 10 9 7 6 5 6 6 6 6 6 6 6 7 7 6 6 5 5 6 7 8 11 14 16 16 17 18 18 17 20 22 23 25 27 24 20 19 19 22 22 19 19 18 17 17 15 12 9 13 16 15 15 16 15 15 15 17 17 17 22 29 36 41 46 51 55 59 61 63 64 62
6 6 5 5 5 5 5 5 5 5 6 7 8 8 7 6 6 5 6 7 7 6 6 6 7 7 7 6 6 5 5 5 5 6 8 11 14 16 17 18 18 17 18 20 21 23 26 28 25 20 19 21 23 22 19 19 17 17 17 15 12 10 14 17 16 16 16 15 16 17 18 18 19 22 28 35 40 45 49 52 57 59 60 60 61
4 4 3 3 3 2 2 2 3 5 6 7 7 7 6 6 6 6 7 7 7 7 7 7 7 7 7 7 6 5 5 5 5 7 9 12 14 16 17 17 17 18 19 19 20 24 27 27 25 22 20 22 24 22 19 18 17 17 17 14 13 10 14 16 16 16 16 16 17 18 19 20 21 23 26 32 39 44 47 49 52 56 58 58 58
4 3 3 2 3 3 4 5 6 6 7 7 7 7 7 6 7 7 7 7 7 7 7 7 7 8 8 7 6 6 5 5 6 8 11 12 14 15 16 16 16 18 19 19 20 24 28 27 24 22 21 23 25 22 19 18 17 16 16 14 13 10 13 16 16 16 16 17 17 19 20 21 22 24 26 30 35 40 44 47 48 50 53 56 56
10 10 9 9 9 8 8 8 8 8 8 8 7 7 7 7 7 7 7 7 7 7 7 7 8 9 8 7 7 7 6 7 8 11 12 12 13 14 14 15 16 18 19 20 22 26 29 26 23 22 22 24 25 22 19 18 17 17 16 15 14 11 13 16 16 15 16 17 18 19 20 21 22 24 25 28 31 35 39 43 45 46 47 50 52
14 13 13 12 12 11 10 9 9 8 8 8 8 7 7 8 8 8 7 7 7 7 8 8 8 9 9 8 8 8 8 9 11 12 12 12 12 12 13 14 16 19 20 22 24 27 29 26 23 22 23 25 25 21 19 18 17 17 16 15 14 12 14 16 16 15 15 16 17 18 19 21 22 23 25 26 29 32 35 38 40 42 43 44 45
14 13 14 13 12 11 10 9 9 9 9 9 9 8 8 8 8 8 7 7 8 8 9 8 9 10 10 10 9 9 10 10 12 12 11 11 11 12 13 14 17 20 22 24 25 27 27 24 22 23 24 26 24 21 19 18 17 16 16 16 15 14 15 16 16 15 14 15 16 17 18 19 20 22 23 25 27 29 32 34 36 38 39 40 40
14 14 14 13 13 11 11 10 10 11 11 10 10 10 9 8 8 8 8 8 9 10 10 9 10 12 12 12 12 11 10 10 11 11 12 12 12 13 15 16 18 21 23 25 27 28 26 23 23 24 25 25 23 21 20 19 18 16 16 17 16 16 16 16 17 15 14 15 16 16 17 18 19 20 22 23 25 27 29 31 33 34 35 36 35
15 14 14 13 13 13 13 13 13 13 12 12 11 11 10 9 8 9 9 9 9 10 10 9 11 13 14 13 12 11 11 10 12 13 13 14 14 16 17 18 19 21 24 26 28 28 25 24 24 24 25 23 22 20 20 19 18 17 17 17 17 17 17 16 17 16 14 14 15 15 16 17 18 19 20 22 23 25 26 28 30 31 32 32 32
15 15 14 14 14 15 15 15 15 15 15 15 14 13 12 11 10 10 10 10 10 10 11 11 12 14 13 11 11 11 11 12 14 16 16 16 17 18 17 18 19 22 24 26 27 27 25 24 23 23 23 22 21 20 20 20 19 18 18 18 18 18 17 16 16 16 14 14 14 14 15 16 17 18 19 20 21 23 24 25 27 28 29 30 30
17 16 16 16 16 17 17 17 17 17 18 18 17 15 14 12 11 11 11 11 12 11 12 13 13 14 13 11 12 13 13 14 16 17 17 17 17 17 18 19 20 22 23 25 28 27 24 23 22 21 21 21 21 21 21 20 19 19 19 19 19 18 17 16 15 15 15 14 14 14 15 16 17 17 18 18 19 21 22 23 24 25 25 26 27
19 19 18 17 18 18 19 19 19 19 19 19 18 17 16 14 13 12 12 13 13 13 13 14 14 13 13 12 13 15 16 16 17 19 19 19 18 18 19 21 22 22 22 24 27 26 24 24 22 21 20 21 21 22 22 21 20 20 19 19 19 18 17 16 15 15 15 14 14 14 15 16 17 18 17 17 17 19 20 21 22 22 23 24 24
22 21 20 19 19 19 20 20 20 20 19 19 19 18 16 15 14 14 13 13 13 13 13 13 13 13 12 13 14 17 17 17 18 21 22 22 21 21 21 23 23 23 23 24 26 25 24 24 23 22 21 21 21 22 22 21 20 20 19 19 19 18 17 16 14 14 15 15 15 15 15 16 17 18 18 18 18 18 19 20 21 21 21 22 23
22 21 21 21 21 21 21 21 20 20 20 20 19 18 17 16 16 15 15 14 14 14 13 12 12 12 12 13 15 17 18 18 21 23 24 23 23 23 23 24 24 24 24 25 24 24 24 23 23 22 21 21 22 22 22 22 20 20 19 19 18 18 17 16 14 14 15 15 15 15 15 16 17 17 18 18 18 19 19 20 21 21 21 21 21
21 21 21 21 22 22 22 22 21 21 21 21 20 20 19 18 17 17 16 16 16 15 15 14 13 14 15 15 17 18 19 20 21 23 24 23 23 23 23 24 25 25 24 24 24 24 23 23 23 22 22 22 23 22 22 22 21 20 20 19 18 17 17 16 15 15 16 16 16 16 16 16 16 17 17 17 18 18 19 20 20 21 21 21 21
21 21 21 22 22 22 23 23 23 23 22 22 22 21 20 20 19 19 19 19 18 17 16 16 16 17 18 18 19 20 20 21 22 24 23 23 22 23 23 24 26 26 26 24 25 25 24 24 24 23 23 24 23 23 22 22 22 21 20 19 18 18 17 16 16 15 16 17 16 16 16 16 16 16 16 16 16 17 17 18 19 19 19 19 19
22 22 22 22 22 23 24 24 25 25 24 24 23 22 22 21 21 21 21 21 21 20 19 18 18 19 19 19 19 19 20 21 23 25 24 23 23 23 23 23 25 26 26 26 26 26 27 27 26 25 25 25 24 23 23 23 22 22 22 21 20 19 19 18 17 16 16 17 16 16 16 16 16 16 16 15 15 15 16 16 16 17 17 17 17
23 23 24 23 24 24 25 26 26 27 27 26 25 24 23 22 22 23 23 23 23 22 21 20 19 19 19 19 19 20 21 23 25 25 25 24 24 25 25 25 24 25 27 29 30 30 31 30 30 29 29 28 27 26 25 24 23 23 23 23 22 21 21 20 19 18 17 17 16 16 16 16 16 16 15 15 15 14 14 14 14 14 15 15 15
23 23 23 24 25 26 27 28 28 29 29 29 27 27 26 24 23 23 24 24 25 25 24 23 22 21 20 19 19 21 24 26 27 26 26 26 26 27 28 29 29 29 31 33 34 35 35 35 34 34 33 32 31 30 28 27 26 26 25 25 24 23 23 22 21 20 19 17 16 16 15 15 15 15 15 15 15 14 13 12 12 12 13 13 14
22 23 23 24 25 26 28 29 30 31 31 31 29 28 28 27 26 24 24 24 24 25 25 24 22 21 20 20 20 21 22 25 27 27 26 27 29 30 31 33 34 36 37 37 39 40 40 41 41 40 39 38 36 35 33 31 29 28 28 28 27 26 25 24 23 22 21 19 17 16 15 14 14 14 14 14 14 14 13 13 12 12 12 13 14
21 21 22 23 25 27 28 29 30 31 32 32 32 30 29 29 28 26 24 23 23 23 23 23 22 21 20 20 20 20 21 24 26 26 25 26 29 31 33 34 36 38 40 42 43 44 45 46 46 46 45 44 42 41 39 36 34 33 32 31 31 30 28 27 26 24 23 22 19 17 15 14 13 13 12 12 12 12 12 12 12 13 13 14 14
21 20 21 22 24 25 27 28 30 31 32 33 33 32 31 31 31 29 26 24 24 23 22 21 21 21 21 21 21 21 22 23 26 28 29 29 30 31 31 33 35 37 39 41 43 44 46 47 49 49 49 49 48 47 46 44 42 40 38 37 35 34 33 32 30 28 26 24 23 21 19 17 16 14 13 12 12 11 11 11 11 12 12 13 14
22 21 21 21 22 24 25 26 28 30 31 32 33 34 33 32 32 31 29 26 25 24 23 22 22 23 23 24 25 25 26 27 30 33 34 34 34 33 32 33 35 36 38 39 41 43 45 47 48 50 51 52 52 52 51 51 50 48 47 45 43 41 40 38 36 34 32 30 28 25 23 21 20 18 17 15 14 13 12 11 11 11 11 12 12
24 23 22 22 22 23 24 25 26 28 30 31 32 33 33 32 31 31 31 29 28 26 25 24 25 26 27 27 28 28 29 30 32 33 33 33 33 32 31 32 33 35 36 38 40 41 43 45 47 48 50 51 52 53 53 54 54 54 54 53 51 50 48 46 44 41 39 37 35 32 30 28 26 24 22 20 18 16 15 14 13 12 12 12 12
24 24 24 23 23 23 23 23 24 26 28 29 31 32 32 31 29 29 29 29 29 28 27 27 27 28 29 29 29 29 29 29 30 30 29 29 28 27 27 27 29 32 34 35 37 38 40 42 44 46 47 49 50 51 52 53 54 54 55 56 56 55 54 53 52 50 48 45 43 41 38 36 33 31 29 26 24 21 19 18 16 15 14 13 13
23 24 24 24 24 24 23 23 23 24 25 27 29 30 31 30 28 26 26 27 27 27 27 27 28 29 29 30 30 30 30 29 28 27 26 25 25 25 25 25 26 28 31 32 33 35 37 39 41 42 44 45 47 48 49 50 51 52 53 54 55 55 56 55 55 55 54 53 51 49 47 45 43 40 37 35 32 29 27 24 22 20 18 17 15
20 21 22 23 24 24 24 23 23 22 23 24 26 27 29 29 28 26 24 24 25 26 26 26 27 28 28 29 29 29 28 28 28 27 26 25 25 25 26 26 26 26 28 29 31 33 35 36 37 38 40 41 43 44 45 47 48 49 50 51 51 52 53 54 55 55 55 55 55 54 53 52 51 49 47 45 42 39 37 34 31 28 26 23 21
17 18 19 21 22 22 23 23 23 22 22 23 23 24 26 27 27 26 24 23 24 25 25 25 26 27 27 27 27 26 25 24 25 25 24 24 24 24 24 25 25 25 26 27 28 30 31 32 34 35 37 38 39 41 42 44 45 46 47 47 48 48 49 50 52 52 53 53 54 54 54 54 53 52 51 50 49 47 46 44 41 39 36 34 31
14 15 16 17 19 20 21 22 22 22 22 22 22 22 22 23 25 24 23 23 22 22 23 23 23 24 24 24 23 22 22 21 22 23 22 21 21 21 21 21 22 23 24 24 25 27 28 30 31 32 33 34 36 37 38 40 41 42 43 44 45 45 46 47 48 48 49 50 50 51 52 52 52 52 51 51 50 49 49 48 47 46 44 43 41
12 13 14 15 16 17 18 19 20 21 22 22 21 21 20 20 21 21 21 20 19 19 19 19 19 19 18 18 18 18 18 19 20 21 21 20 20 19 18 18 19 20 21 22 23 24 26 28 29 30 31 31 32 33 34 35 36 37 38 39 40 41 42 43 44 45 45 46 46 46 47 48 49 49 49 49 49 49 48 48 47 47 46 46 45
10 11 12 13 13 14 15 16 17 19 20 20 20 20 19 18 18 18 18 18 17 16 14 13 13 12 12 12 14 15 16 17 17 18 19 19 18 18 18 17 18 18 19 20 20 21 22 23 25 26 27 28 29 29 30 31 32 33 34 35 35 36 37 38 39 40 41 41 41 42 43 43 44 44 45 45 46 46 46 46 46 46 45 45 45
7 9 10 11 12 13 13 14 14 16 17 18 18 19 18 18 16 15 15 15 15 14 13 12 11 10 9 10 11 14 15 14 14 15 16 17 16 16 17 17 17 17 17 17 17 18 19 20 21 22 23 24 25 26 27 28 28 29 30 31 32 32 33 33 34 35 36 36 37 37 38 39 39 39 40 41 41 42 42 43 43 44 44 44 43
7 6 7 9 10 11 11 12 12 13 14 14 15 16 17 17 16 15 14 13 13 12 12 12 11 10 10 10 10 11 11 12 12 12 13 13 14 14 15 15 15 15 15 15 15 16 17 18 19 20 20 22 22 23 24 25 25 26 26 27 28 29 29 30 30 31 31 32 32 33 34 34 34 35 35 36 36 37 37 38 38 39 40 40 40
9 8 7 7 8 9 10 11 11 11 11 12 12 13 14 14 14 14 13 12 12 12 11 11 10 10 10 9 9 8 7 8 8 8 9 9 9 10 11 12 13 13 13 13 13 14 14 15 16 16 17 18 19 20 21 22 23 23 24 24 25 25 26 27 27 27 27 28 29 29 30 30 30 30 31 31 31 32 32 33 33 34 35 35 36
11 10 9 8 8 8 9 10 11 11 10 10 10 10 10 11 11 11 11 11 10 10 10 10 10 9 8 8 8 7 7 7 7 6 6 6 6 7 8 9 9 10 10 10 10 11 11 12 12 13 14 15 16 17 17 18 19 20 21 21 22 22 23 23 24 24 24 25 25 26 26 26 26 26 27 27 27 27 28 28 28 29 29 30 30
13 12 11 11 10 10 10 10 11 11 11 9 9 8 7 7 8 7 8 8 8 8 8 8 9 8 8 9 9 8 8 8 8 7 6 4 4 5 6 6 7 7 7 7 7 8 8 9 9 10 11 12 13 13 14 15 16 16 17 18 18 19 19 20 20 21 21 22 22 23 23 23 23 23 24 24 23 23 23 24 24 24 25 25 25
15 14 13 12 12 11 12 12 11 11 12 11 9 8 7 6 6 5 5 5 5 5 5 5 5 6 8 9 9 9 9 10 9 9 7 6 4 2 2 3 3 3 3 3 4 5 5 6 6 7 8 9 10 11 12 12 13 14 14 15 15 16 16 17 17 18 19 19 19 20 20 20 20 20 20 21 21 21 20 20 20 20 20 21 21
17 17 15 14 13 13 14 14 13 12 12 12 11 10 9 8 7 6 5 4 3 2 2 3 3 4 5 6 6 7 7 8 8 9 8 7 6 4 3 2 2 2 2 2 2 3 3 3 4 5 5 6 7 8 9 10 11 12 12 13 13 14 14 15 15 15 16 16 17 17 17 17 17 17 17 18 18 18 18 17 17 17 17 17 17
20 20 19 18 16 16 16 17 16 15 14 13 13 13 12 9 9 9 9 8 7 5 3 3 3 2 1 1 3 4 5 5 6 6 7 8 8 7 6 5 5 5 5 5 6 5 5 5 5 4 5 5 6 7 8 8 9 10 11 12 13 13 14 14 14 15 15 15 15 15 15 15 15 15 15 15 16 15 15 15 15 15 15 15 14
24 24 24 23 21 20 20 20 19 19 18 17 17 16 15 13 11 11 12 12 12 11 8 5 4 4 3 1 1 2 3 3 3 4 6 7 7 7 7 7 7 7 7 8 8 8 8 8 9 8 8 8 8 8 9 9 10 10 11 12 13 13 14 14 14 15 15 15 15 14 14 14 13 13 13 14 14 14 14 14 13 13 13 12 12
27 28 29 28 26 25 24 23 22 22 22 22 21 19 19 18 17 15 15 16 16 15 13 10 7 7 6 3 2 2 3 3 3 3 5 5 6 7 7 7 7 8 9 10 10 11 11 11 12 12 12 12 12 12 12 12 13 13 13 14 15 15 16 15 15 15 16 16 16 15 14 14 14 13 13 13 13 13 13 13 13 13 12 11 10
30 30 31 30 29 28 27 26 25 25 25 25 24 23 22 21 21 19 19 20 19 18 17 15 14 12 10 8 6 4 4 4 4 4 4 5 5 6 6 7 8 9 9 10 11 12 13 14 14 14 14 15 15 15 15 15 15 15 15 15 16 17 18 19 19 18 17 17 17 17 16 15 15 15 14 13 13 13 13 13 13 13 12 12 11
33 33 33 32 32 31 30 29 27 27 27 27 26 25 24 23 24 24 23 23 22 21 20 20 19 18 16 13 12 10 8 7 6 6 6 6 6 6 7 8 8 9 9 9 10 11 12 14 15 15 15 15 16 16 16 16 17 16 16 17 17 18 19 20 21 21 19 18 17 18 18 18 17 16 16 16 15 14 14 14 14 13 13 12 11
36 36 36 36 35 34 33 31 31 29 27 26 26 26 25 24 26 27 26 25 25 23 23 23 23 22 20 18 16 15 13 11 9 9 8 8 7 7 8 9 10 10 9 10 11 12 13 14 15 16 16 16 16 17 17 17 17 16 17 17 18 18 19 19 20 21 21 19 18 17 18 18 18 18 17 17 17 16 15 14 14 14 14 13 13
40 39 39 39 38 38 36 35 34 32 29 27 27 27 26 27 28 29 27 27 27 26 26 27 26 25 24 22 20 20 18 16 14 13 13 11 10 10 10 10 11 12 12 12 12 13 14 14 15 16 18 18 18 18 18 17 17 16 16 16 17 17 17 18 19 20 20 20 19 17 16 16 17 17 17 17 17 17 17 16 15 14 14 14 14
45 43 42 42 41 42 41 40 38 36 32 30 29 29 29 30 31 31 29 28 28 28 28 30 30 29 28 27 25 24 22 20 18 17 17 16 14 13 13 12 13 14 15 15 15 16 16 16 16 17 18 19 20 20 20 18 17 16 16 16 16 14 14 15 17 19 20 19 19 19 17 16 15 15 16 17 16 16 17 17 15 14 14 14 14
50 47 45 44 45 45 45 44 42 39 36 35 34 34 33 33 33 33 32 31 32 32 32 32 33 33 33 31 30 29 27 25 23 21 20 20 19 18 17 16 17 17 17 18 19 19 19 18 18 18 19 20 21 23 23 21 19 18 17 17 16 14 13 13 14 16 18 19 19 19 19 18 16 15 15 16 17 16 17 17 16 15 15 15 16
52 50 47 45 47 49 48 46 44 42 39 38 38 38 38 37 37 37 37 36 36 36 37 37 38 38 37 36 35 34 32 30 28 26 25 24 22 21 20 20 20 19 20 21 22 22 22 22 21 21 21 22 23 23 23 23 23 22 21 19 17 15 14 13 12 14 16 18 18 18 18 19 18 17 16 16 17 17 17 17 17 17 17 17 17
53 50 47 45 48 50 49 45 44 43 41 41 41 41 41 41 40 41 41 41 41 40 40 41 42 42 42 42 41 39 37 36 33 31 30 28 25 24 23 22 21 21 21 22 23 24 24 24 24 24 24 25 25 24 24 24 25 25 24 22 19 17 16 16 14 14 16 19 19 18 19 20 20 20 19 17 17 18 18 18 18 18 18 18 19
Wind_Direction
198 208 212 213 217 232 244 255 270 294 306 310 312 310 300 301 308 311 315 322 333 0 35 35 34 38 29 21 12 6 5 356 0 5 8 12 13 14 17 19 18 16 15 15 16 15 14 10 3 357 356 2 7 9 12 14 17 18 19 31 56 106 120 106 107 97 82 81 66 51 43 19 13 19 21 25 30 31 35 40 41 41 46 54 64
173 179 186 198 203 218 242 269 285 296 305 312 311 307 309 315 319 323 330 348 12 28 30 25 30 32 23 15 9 5 0 355 0 6 10 13 12 14 17 19 18 16 15 17 18 18 17 14 8 0 357 3 8 10 17 19 17 19 21 32 56 105 124 114 104 90 78 75 70 61 49 35 27 27 29 33 36 38 40 44 46 46 48 55 64
189 191 203 212 218 230 247 265 279 296 310 319 320 320 325 331 340 357 19 31 33 31 24 15 16 18 14 12 10 4 356 356 1 2 8 11 11 14 16 18 18 16 16 18 18 18 17 14 10 4 0 4 8 11 19 23 19 21 23 32 57 102 128 119 107 92 81 74 70 63 52 45 41 37 37 40 41 43 46 48 50 51 52 56 63
207 216 225 230 237 244 257 270 292 315 326 329 333 338 348 1 17 32 38 37 33 23 12 7 11 11 11 17 14 2 356 359 0 358 5 12 13 12 14 17 18 19 20 19 17 16 15 13 11 10 6 6 9 12 19 24 23 24 25 34 56 102 132 122 110 98 88 78 70 64 57 50 48 45 45 47 48 48 50 51 53 56 58 61 66
197 215 225 246 261 271 283 316 354 350 346 349 353 3 14 18 23 29 33 34 25 12 7 11 14 13 18 23 14 4 7 10 4 0 7 14 14 12 13 16 17 22 23 19 16 15 13 11 15 18 13 9 11 15 20 26 27 26 30 38 54 95 132 125 111 102 91 81 71 64 59 53 51 50 50 52 53 53 55 55 56 59 62 65 70
98 94 84 66 54 48 41 37 29 19 15 14 12 16 21 17 16 20 25 28 23 16 14 17 19 17 20 20 13 14 24 28 16 8 12 14 14 13 15 15 16 21 23 19 15 13 10 11 18 21 16 12 14 17 22 28 29 28 34 43 53 86 131 128 113 103 92 82 71 64 59 55 53 52 53 55 57 58 58 59 59 60 64 67 71
79 77 74 69 63 55 51 47 42 37 31 26 21 20 23 22 21 26 31 31 28 23 17 16 19 22 21 20 22 26 34 35 21 14 15 15 16 15 13 14 16 17 19 18 13 10 8 10 17 18 15 14 14 17 24 30 30 30 40 48 52 81 128 129 115 104 93 83 73 65 61 58 55 55 56 57 60 61 62 63 63 63 65 69 72
74 70 67 63 59 55 52 49 44 38 32 28 26 28 34 38 38 40 39 37 30 23 21 19 27 34 33 29 33 39 41 34 23 19 17 17 19 15 12 12 14 15 16 14 10 8 8 10 14 14 15 16 13 16 26 34 33 33 45 52 56 84 123 128 117 105 96 87 77 69 64 60 59 59 59 60 62 64 66 67 68 69 69 70 74
67 63 61 58 56 54 49 44 38 32 29 29 31 36 41 44 46 44 41 39 38 36 35 40 47 49 42 38 46 49 44 36 29 28 23 23 21 17 17 16 14 16 16 13 9 8 8 10 12 13 17 16 14 17 26 35 36 38 50 56 64 90 117 125 118 108 100 90 80 73 68 66 63 62 63 64 65 66 69 71 73 75 75 75 77
61 59 56 54 53 49 43 38 33 30 27 27 30 33 38 41 42 44 45 47 50 51 50 54 58 58 55 53 57 53 45 38 34 33 29 28 28 23 23 19 15 15 15 11 9 8 9 11 13 15 19 17 14 19 26 34 39 43 55 61 75 95 111 121 118 110 103 92 83 76 71 71 69 67 66 67 68 69 71 73 76 79 81 82 83
57 55 53 51 47 43 39 36 33 32 29 27 28 31 36 39 39 43 49 53 58 61 59 60 67 70 65 61 61 56 48 40 31 29 28 28 29 26 23 19 15 13 12 9 6 9 12 13 16 19 18 16 17 22 27 34 40 47 58 68 83 98 109 117 118 111 104 95 86 79 74 75 76 74 71 70 70 72 73 76 77 80 84 88 91
55 54 51 48 44 41 39 35 34 34 32 32 32 34 38 40 42 48 56 60 65 69 70 68 70 73 70 65 62 54 45 39 30 27 27 28 28 25 22 20 16 12 10 8 7 13 15 15 19 20 18 19 21 25 30 36 42 49 60 74 88 99 107 115 117 113 105 98 90 83 77 77 80 81 78 75 73 73 74 76 78 80 83 87 92
58 55 52 49 45 43 40 36 35 35 36 37 38 39 42 45 48 53 63 70 71 71 75 73 70 71 72 66 54 43 39 37 33 31 30 31 31 27 23 20 17 12 9 8 10 16 18 18 22 21 21 23 24 28 33 38 43 51 63 78 90 97 104 112 116 113 107 100 94 88 82 81 83 84 84 81 78 76 75 74 76 79 81 85 89
62 58 55 52 49 46 42 40 39 39 40 41 42 43 47 50 53 58 66 74 75 72 72 74 73 72 70 61 47 41 41 39 37 36 36 36 35 31 24 20 17 11 10 11 13 18 21 22 25 25 27 28 28 32 36 40 45 52 64 78 88 94 100 108 115 115 110 102 97 92 88 85 84 84 86 86 84 81 79 77 76 77 79 82 86
64 62 59 56 53 50 47 45 44 44 47 47 47 48 51 55 57 59 64 70 76 76 73 72 72 71 66 59 51 46 46 45 46 46 44 43 41 35 27 22 18 14 14 16 16 20 24 25 27 29 31 32 32 35 38 44 48 53 64 75 84 90 95 102 111 116 113 106 100 97 94 90 86 85 85 86 86 85 84 82 81 80 80 81 83
64 63 62 60 56 53 51 50 49 49 51 52 52 53 55 58 60 61 63 66 69 72 73 70 68 68 66 61 57 55 55 56 56 55 52 49 45 37 30 25 24 22 21 19 21 25 27 29 32 32 33 35 38 40 43 47 51 56 62 71 80 85 91 97 106 113 114 110 105 102 100 95 90 87 86 85 85 86 86 86 86 86 85 84 84
63 61 60 59 56 54 54 53 52 51 51 54 54 56 58 60 62 64 65 65 65 65 66 66 65 67 68 68 67 67 66 63 60 59 56 51 45 38 32 31 31 32 29 24 25 31 33 35 38 38 37 40 42 45 47 50 54 57 62 68 76 82 89 95 102 110 114 113 108 105 103 100 95 90 88 87 86 86 87 88 90 90 90 90 89
62 59 57 56 54 53 54 53 52 50 51 53 54 56 58 61 63 65 67 68 68 66 66 67 67 69 72 73 74 73 70 66 64 63 59 53 47 41 37 36 36 38 38 33 33 38 41 42 44 43 43 45 47 49 51 53 56 59 63 67 73 79 85 92 99 107 113 114 111 107 105 103 99 94 91 89 88 88 89 90 91 92 92 92 92
60 58 56 55 54 53 53 52 52 50 50 52 53 54 57 60 62 65 68 70 71 72 72 73 73 73 75 75 75 73 69 66 65 64 61 56 52 51 49 45 40 40 43 44 44 46 47 48 49 49 50 51 53 54 55 57 59 62 65 68 72 76 81 88 95 103 110 115 114 109 106 104 102 98 94 92 90 89 89 91 92 92 92 92 92
59 59 58 57 55 54 53 53 53 51 50 52 53 54 55 58 61 64 68 71 73 74 76 79 79 78 76 75 73 71 71 70 67 65 65 64 61 61 61 59 54 51 53 56 56 55 55 54 54 55 55 56 57 59 59 60 62 64 66 69 71 74 78 83 90 97 105 112 114 111 106 103 100 98 95 92 90 89 89 89 91 92 93 93 94
56 58 58 57 56 55 54 53 53 52 51 52 54 54 55 56 59 64 68 71 74 76 78 80 82 81 79 75 70 69 72 73 72 72 73 73 70 68 68 68 68 66 64 63 62 62 61 60 60 60 60 61 61 61 62 63 64 65 67 69 71 74 76 80 84 90 98 106 112 112 108 103 99 96 94 91 89 88 87 86 87 90 92 94 96
53 54 55 55 54 54 53 52 53 53 52 52 53 54 55 56 59 64 68 72 75 77 78 78 79 79 77 74 70 67 69 72 74 76 76 76 76 75 75 75 74 73 71 70 69 68 67 67 66 66 65 64 64 64 64 65 65 66 67 69 70 72 75 77 81 85 90 97 104 109 109 106 101 97 93 90 88 87 86 85 85 86 90 95 99
48 50 52 52 52 51 50 51 52 53 53 53 54 54 56 58 60 64 69 74 77 78 77 75 73 74 74 73 70 67 67 69 75 81 82 81 80 79 78 77 76 75 75 74 73 72 71 71 70 69 69 68 68 68 68 68 68 68 68 69 70 71 72 74 77 80 84 88 94 98 101 103 102 100 96 92 90 90 89 89 88 88 90 95 100
44 46 46 48 49 47 47 49 51 52 53 54 56 56 57 60 62 65 69 73 77 78 77 76 74 74 74 73 71 71 71 74 84 92 94 91 87 83 80 78 77 76 75 75 74 74 74 74 73 73 73 73 72 72 72 71 71 71 71 71 71 71 71 72 73 75 78 80 84 87 89 91 93 93 94 93 94 94 94 94 94 93 93 96 100
43 43 42 42 42 43 44 46 50 52 53 54 57 58 58 61 64 67 70 73 76 78 79 80 80 78 76 75 74 76 79 85 96 101 99 95 91 88 85 83 82 80 78 77 77 77 77 76 76 76 75 75 75 75 75 75 74 74 73 73 73 72 72 72 73 74 74 75 77 79 80 82 83 84 86 88 89 92 94 96 96 97 97 99 100
43 42 42 41 40 40 41 44 48 51 53 54 56 58 59 62 66 69 73 75 78 80 82 84 84 83 81 80 79 81 85 92 100 102 99 96 93 89 86 84 83 82 81 79 78 77 77 78 78 77 77 77 77 77 77 77 77 77 76 75 75 74 74 74 74 74 74 74 75 75 76 77 77 78 80 81 84 86 89 92 94 95 97 98 100
44 43 43 42 41 40 40 43 46 49 52 53 55 58 59 62 66 71 75 77 79 82 84 85 86 86 85 85 84 85 88 95 100 100 97 95 93 89 86 85 83 81 81 79 78 78 79 79 79 79 79 79 78 78 78 78 78 78 78 78 77 76 76 76 76 76 75 75 75 75 75 76 76 76 77 78 79 81 83 85 88 90 92 95 98
44 43 43 43 43 42 42 43 44 46 49 52 54 57 59 61 64 70 75 78 79 83 86 87 88 89 88 87 86 86 88 92 95 95 94 93 91 88 87 87 85 83 83 81 81 82 82 82 81 81 80 80 79 79 79 79 79 79 79 79 78 78 78 77 77 77 77 77 77 76 76 76 76 76 76 77 77 78 79 80 82 83 85 87 90
43 43 43 44 44 43 44 45 46 46 47 49 52 56 58 60 62 65 71 77 80 83 87 90 90 90 88 85 84 84 85 87 87 88 89 89 89 88 88 88 87 86 86 84 83 84 84 83 82 82 81 81 81 81 80 80 79 79 79 79 79 79 79 79 79 78 78 78 78 77 77 77 77 77 77 77 77 77 78 78 79 81 82 83 84
43 43 42 42 43 44 45 46 47 48 48 47 48 52 57 61 63 65 69 75 81 84 87 90 91 89 86 83 80 79 80 83 84 84 85 87 87 86 86 86 86 86 85 84 84 84 84 83 82 82 81 81 81 80 80 80 79 79 79 79 78 78 79 79 79 79 79 79 79 78 78 77 77 77 77 77 78 78 78 78 78 79 80 81 82
42 42 41 40 41 42 43 45 47 49 50 49 48 49 52 57 63 68 71 75 79 83 85 88 90 89 85 78 72 72 77 83 85 83 84 87 88 86 84 83 84 85 84 84 84 85 85 84 82 80 80 79 78 77 77 77 77 78 78 78 78 78 77 77 78 78 79 79 80 80 79 79 79 78 77 77 77 77 77 78 78 79 79 80 80
40 40 40 39 39 39 40 42 44 47 50 52 51 50 49 51 57 65 72 76 78 81 83 85 86 86 81 70 62 67 76 82 84 82 83 88 92 91 88 87 87 87 86 85 86 87 86 84 82 80 76 74 72 72 72 72 73 73 74 74 75 75 75 76 76 76 77 77 78 78 79 80 80 80 79 78 78 77 77 77 77 78 79 79 80
36 36 37 37 38 38 37 37 40 43 46 49 52 53 52 50 51 55 64 73 78 81 80 79 78 77 70 60 60 72 81 81 80 80 81 86 92 95 94 94 92 90 87 86 86 86 85 83 81 77 73 71 69 67 66 66 66 67 68 68 69 70 71 71 72 73 74 74 75 75 76 77 78 79 79 79 79 79 78 78 77 77 78 78 79
24 31 32 33 35 35 35 34 35 38 41 45 49 53 55 54 52 50 50 56 66 74 77 76 73 68 60 55 68 84 88 84 81 81 83 86 91 94 97 97 95 90 87 86 84 82 80 78 74 71 68 67 66 65 63 61 60 60 61 61 62 63 64 64 65 66 68 69 70 70 71 72 73 74 75 76 77 79 79 79 79 79 78 78 78
352 7 20 25 26 27 27 29 31 34 37 39 44 49 53 56 56 54 49 46 47 52 59 66 69 67 64 62 71 85 88 84 82 84 85 87 90 94 98 99 98 95 90 86 83 80 77 74 71 67 65 63 63 62 60 58 56 56 56 57 57 58 58 58 58 59 60 61 62 63 65 66 67 68 69 71 72 74 76 78 78 79 80 79 78
325 332 347 2 11 13 15 17 20 25 31 33 38 45 49 54 57 57 55 50 45 41 40 44 50 55 59 61 66 70 72 71 74 80 84 85 86 92 99 101 100 98 94 89 83 78 75 73 69 66 62 60 59 59 57 56 54 53 53 53 53 54 53 53 53 54 54 54 54 55 57 58 59 61 62 63 65 67 69 72 73 75 78 79 79
305 311 320 329 339 348 356 3 7 11 16 20 27 35 41 47 53 59 61 58 51 45 39 35 35 35 38 42 46 48 46 45 49 55 64 74 83 94 104 106 103 99 96 90 84 79 74 71 68 64 61 58 56 55 54 52 51 49 48 47 46 46 47 47 48 48 48 48 48 49 49 50 51 52 54 56 58 60 62 64 66 69 71 73 76
291 295 300 308 316 322 329 341 351 356 357 1 8 16 25 34 39 46 59 66 65 60 49 39 33 30 29 27 24 23 21 23 29 30 34 45 69 94 108 110 106 100 93 89 84 78 72 67 62 57 55 54 53 51 50 48 46 44 42 40 39 38 39 40 41 41 41 40 40 41 41 42 43 44 45 46 48 51 53 56 58 60 63 65 68
281 283 285 290 295 303 310 318 328 336 340 340 342 349 356 4 10 18 29 45 62 73 73 65 47 33 32 32 27 21 14 9 9 8 13 18 25 47 97 109 104 94 83 74 66 57 55 50 46 43 42 42 42 41 40 40 38 37 36 35 33 33 33 33 33 32 32 31 32 32 33 34 35 36 37 38 39 40 42 44 47 50 53 57 60
276 279 280 281 283 288 296 302 306 312 319 323 322 324 331 338 338 337 343 349 354 19 60 78 75 58 46 39 33 27 19 12 4 355 352 354 354 349 340 324 313 310 316 328 342 358 8 11 15 18 19 21 23 23 24 25 25 24 24 24 23 23 22 23 23 23 22 21 23 23 23 24 26 27 28 29 30 31 32 33 35 37 40 44 49
272 274 275 277 280 287 294 297 298 297 298 302 305 307 310 315 319 316 314 312 309 310 330 14 47 51 45 48 48 33 12 8 10 357 344 343 342 339 333 326 314 302 293 290 291 294 301 309 319 329 339 345 352 358 1 4 5 7 7 6 6 7 7 7 9 10 11 11 12 13 14 14 15 16 18 19 21 21 22 23 25 26 28 30 34
269 271 272 275 280 286 292 295 294 290 287 287 292 296 297 298 302 305 303 299 297 300 310 328 349 349 332 326 63 34 355 345 356 346 339 337 333 327 322 317 312 305 298 292 288 288 289 290 293 298 303 309 315 323 329 333 337 340 343 344 345 347 349 350 351 352 354 356 358 359 1 2 3 5 5 7 9 11 11 12 14 16 17 18 20
270 271 273 275 279 283 287 290 288 284 282 281 284 288 290 291 292 295 296 298 302 305 304 303 308 315 316 311 333 352 332 310 304 311 323 325 317 314 313 310 305 300 297 295 294 293 292 290 291 293 295 298 303 306 310 313 317 320 323 325 327 329 331 333 334 334 336 339 341 342 343 345 347 350 351 352 353 356 357 359 1 2 4 6 8
269 271 272 273 275 278 282 284 285 284 281 277 278 281 283 285 286 286 288 294 304 308 303 297 295 296 296 299 303 307 303 297 284 272 287 299 292 291 297 301 303 302 299 300 300 299 297 295 294 294 295 298 300 303 304 306 308 310 312 315 317 320 322 324 325 326 326 326 328 330 330 331 332 334 335 336 337 338 341 344 346 349 351 352 353
267 268 270 269 270 273 276 278 281 284 283 279 276 277 279 281 282 283 283 286 293 300 301 299 296 291 288 292 295 294 288 284 277 268 277 291 287 278 280 288 296 301 304 308 309 306 302 299 298 298 296 296 297 299 300 300 301 304 306 308 310 312 314 316 319 322 324 324 322 323 323 323 324 323 323 324 325 325 328 330 332 334 336 337 338
266 266 268 268 269 271 272 274 276 278 280 280 278 278 279 280 282 283 283 283 285 291 296 298 298 295 291 289 290 292 291 287 284 283 285 290 289 286 285 287 291 294 299 309 311 307 305 304 303 301 298 295 295 296 296 295 294 297 300 303 304 306 308 310 312 317 322 324 323 320 319 319 319 319 318 318 320 320 321 321 323 323 323 323 322
265 265 266 267 269 270 271 272 273 273 273 274 275 275 275 278 280 282 284 283 283 285 288 291 294 297 295 291 288 289 289 288 288 288 287 287 288 288 288 287 286 286 290 298 302 302 303 304 304 302 300 299 299 297 294 292 293 296 298 298 298 299 303 306 309 313 319 323 323 321 320 317 316 315 315 315 316 317 318 318 317 316 314 312 310
264 265 265 266 267 268 269 270 272 272 270 267 267 268 269 271 274 277 281 283 283 282 283 286 290 293 294 293 291 286 283 282 283 284 283 284 284 284 285 285 283 283 285 290 294 297 299 300 301 303 303 302 301 297 292 292 296 300 299 296 295 297 299 302 304 308 314 319 321 321 323 322 319 315 313 312 312 311 311 312 313 312 309 306 303
261 264 265 265 265 266 266 267 270 270 268 264 261 261 262 265 267 271 274 277 279 279 279 282 286 289 291 292 291 288 283 279 277 276 277 278 279 279 278 279 282 284 285 287 291 295 298 299 299 301 302 303 301 296 293 294 297 298 296 294 295 298 299 297 296 298 302 307 312 315 318 321 323 320 313 309 309 309 307 306 307 309 307 304 302
256 262 265 264 265 266 266 267 268 269 268 266 262 259 258 259 261 263 266 269 271 273 275 277 279 283 286 288 288 285 282 278 274 271 271 272 274 275 274 275 277 281 282 284 288 292 296 297 296 297 299 300 299 297 297 297 296 295 292 290 290 294 296 295 294 292 290 293 298 303 306 310 315 319 315 308 306 306 306 305 307 309 309 307 305
253 259 262 262 261 262 263 266 268 268 268 268 266 262 260 259 259 260 262 264 265 266 269 273 275 278 281 283 283 281 278 275 271 268 268 269 270 272 272 273 274 277 280 282 286 289 291 293 292 293 294 295 296 297 297 295 293 292 289 285 284 287 289 288 289 289 287 288 290 292 294 297 302 307 309 307 303 303 305 306 307 308 308 306 305